STARLINK-33804, 63511

Orbit data source: Space-Track

STARLINK-33804, 63511 is a payload satellite owned by SpaceX/Seattle (US) in LEO that was launched on Mon, 07 Apr 2025 UTC via an FALCON 9 launch vehicle from the Air Force Western Test Range (AFWTR). Payload-class satellites include a variety of spacecraft equipped with specific instruments for various scientific and technological missions. These include communications satellites like Starlink; space stations such as the ISS; scientific satellites like the Hubble; Earth observation satellites from companies like Planet Labs, Umbra, and HawkEye 360; GPS; miniature CubeSats for education and research; and military/defense satellites.

Loading next visibility...
Identifier
63511, 2025-071U
Orbit
LEO
Country
Flag of USUS
Related business
Manufacturer
SpaceX/Seattle
Mission
Operational Commercial Communications
Bus & Motor
STARLINK V2MO, Unknown motor
Mass
575 kg wet, ~530 kg dry
Launch date (UTC)
2025-04-07 (8 months ago)
Launch vehicle
FALCON 9
Launch site
Air Force Western Test Range (AFWTR)
Object type
Payload
Rocket body
Debris
Shape & HBR
Box + 2 Pan, 17.7 m
Radar Cross Section
36.964 m², Large (>1 m²)

Expand to show TLE details & history
Last TLE update: 11 hours ago

TLE from 11 hours ago
0 STARLINK-33804
1 63511U 25071U   25340.92340656  .00012866  00000-0  44608-3 0  9998
2 63511  53.1584 211.0125 0001814  90.3320 269.7888 15.30176921 38191
Epoch: 2025-12-06T22:09Z
TLE epoch observation values (Epoch: 2025-12-06T22:09:42.326Z)
Latitude
-0.00008°
Longitude
162.6419°
Altitude
476.188 km
Speed
7.629 km/s
True Right ascension
14h 04m 02s
True Declination
0° 00' 00"
Sunlit
Object was in daylight at epoch
Visualization orbit readout
Latitude
Unknown
Longitude
Unknown
Altitude
Unknown
Speed
Unknown
Apparent Right ascension
Unknown
Apparent Declination
Unknown
Sunlit
N/A
Visualization observer readout
Local Sidereal Time
07:41:13
Azimuth
Unknown
Elevation
Unknown
Doppler factor
Unknown
Orbital elements
Apogee altitude
476.784 km
Perigee altitude
474.297 km
Semi-major axis
6,853.678 km
Eccentricity
0.00018
Inclination
53.1584°
RAAN
211.0125°
Arg. of periapsis
90.332°
True anomaly
269.76801°
Mean anomaly
269.7888°
Eccentric anomaly
269.77841°
Mean motion
3.82523 °/min
Orbital period
94.11 mins
BSTAR
0.00044608
Loading maneuver chart data...
Computing Atmospheric mass density...
Loading historical data...
Loading historical data...
Loading historical data...
Loading historical data...
Loading historical data...
Loading historical data...
Loading historical data...

Documentation

Showing up to 5 results
|